This is the latest recevied weather packets stored in our database for station/object F4DYW-13. If no packets are shown the sender has not sent any weather packets the latest 10 day(s).
| Time | Temp. | Humidity | Pressure | Rain* | Wind** | Luminosity | Snow |
|---|---|---|---|---|---|---|---|
| 1777653049 | 20° C | 50% | 1025.2 hPa | 0 mm | - | - | - |
| 1777652013 | 20° C | 54% | 1025.2 hPa | 0 mm | - | - | - |
| 1777650978 | 20° C | 55% | 1025.2 hPa | 0 mm | - | - | - |
| 1777649942 | 20° C | 57% | 1025.1 hPa | 0 mm | - | - | - |
| 1777648906 | 20° C | 60% | 1025.1 hPa | 0 mm | - | - | - |
| 1777647870 | 20° C | 60% | 1025.1 hPa | 0 mm | - | - | - |
| 1777646835 | 20° C | 60% | 1025.2 hPa | 0 mm | - | - | - |
| 1777645799 | 20° C | 60% | 1025.3 hPa | 0 mm | - | - | - |
| 1777644762 | 20° C | 62% | 1025.5 hPa | 0 mm | - | - | - |
| 1777643727 | 20° C | 61% | 1025.6 hPa | 0 mm | - | - | - |
| 1777642691 | 20° C | 61% | 1025.8 hPa | 0 mm | - | - | - |
| 1777641656 | 20° C | 62% | 1025.9 hPa | 0 mm | - | - | - |
| 1777640620 | 20° C | 61% | 1026.1 hPa | 0 mm | - | - | - |
| 1777638548 | 19.44° C | 64% | 1026.4 hPa | 0 mm | - | - | - |
| 1777637512 | 19.44° C | 64% | 1026.5 hPa | 0 mm | - | - | - |
| 1777636478 | 19.44° C | 65% | 1026.6 hPa | 0 mm | - | - | - |
| 1777635441 | 19.44° C | 66% | 1026.8 hPa | 0 mm | - | - | - |
| 1777634406 | 19.44° C | 66% | 1026.9 hPa | 0 mm | - | - | - |
| 1777633370 | 19.44° C | 68% | 1027 hPa | 0 mm | - | - | - |
| 1777632334 | 19.44° C | 69% | 1027.1 hPa | 0 mm | - | - | - |
| 1777631299 | 19.44° C | 70% | 1027.1 hPa | 0 mm | - | - | - |
| 1777630263 | 19.44° C | 71% | 1027.2 hPa | 0 mm | - | - | - |
| 1777629228 | 18.89° C | 72% | 1027.3 hPa | 0 mm | - | - | - |
| 1777628192 | 18.89° C | 72% | 1027.2 hPa | 0 mm | - | - | - |
| 1777627156 | 18.89° C | 73% | 1027.3 hPa | 0 mm | - | - | - |
* Rain latest hour (hover to see other rain measurements)
** Current wind speed in m/s (hover to see current wind gust speed)